| time (UTC) | temp C | wind direction | speed KPH | gust KPH | rain 1hr cm | rain 24hr cm | rain mn cm | humidity % | barometer mb |
| 20260906132600 | 22 | 336 | 0.0 | 6.4 | 0.00 | 0.05 | 0.05 | 70 | 1017.7 |
| 20260906130428 | 22 | 192 | 0.0 | 4.8 | 0.00 | 0.05 | 0.05 | 73 | 1018.1 |
| 20260906124253 | 20 | 126 | 0.0 | 0.0 | 0.00 | 0.05 | 0.05 | 76 | 1018.6 |
| 20260906122116 | 21 | 103 | 1.6 | 6.4 | 0.00 | 0.03 | 0.03 | 71 | 1018.8 |
| 20260906115950 | 20 | 259 | 0.0 | 8.0 | 0.00 | 0.03 | 0.03 | 73 | 1018.8 |
| 20260906114946 | 20 | 158 | 0.0 | 3.2 | 0.00 | 0.03 | 0.03 | 74 | 1018.8 |
| 20260906113943 | 20 | 16 | 0.0 | 1.6 | 0.00 | 0.03 | 0.03 | 73 | 1018.9 |
| 20260906112910 | 20 | 181 | 0.0 | 0.0 | 0.00 | 0.03 | 0.03 | 74 | 1019.2 |
| 20260906111848 | 19 | 247 | 1.6 | 0.0 | 0.00 | 0.03 | 0.03 | 73 | 1019.2 |
| 20260906110825 | 19 | 217 | 1.6 | 14.5 | 0.00 | 0.03 | 0.03 | 73 | 1019.4 |
| 20260906105806 | 19 | 300 | 3.2 | 14.5 | 0.00 | 0.03 | 0.03 | 73 | 1019.4 |
| 20260906104818 | 18 | 276 | 1.6 | 8.0 | 0.00 | 0.03 | 0.03 | 75 | 1019.6 |
| 20260906103811 | 18 | 298 | 0.0 | 16.1 | 0.00 | 0.03 | 0.03 | 76 | 1019.7 |
| 20260906102757 | 18 | 280 | 0.0 | 4.8 | 0.00 | 0.03 | 0.03 | 76 | 1019.9 |
| 20260906101743 | 18 | 53 | 1.6 | 0.0 | 0.00 | 0.03 | 0.03 | 77 | 1019.9 |
| 20260906100718 | 18 | 76 | 3.2 | 11.3 | 0.00 | 0.03 | 0.03 | 78 | 1020.0 |
| 20260906095736 | 18 | 224 | 1.6 | 9.7 | 0.00 | 0.03 | 0.03 | 79 | 1020.0 |
| 20260906094724 | 17 | 158 | 1.6 | 9.7 | 0.00 | 0.03 | 0.03 | 80 | 1020.1 |
| 20260906093739 | 17 | 232 | 1.6 | 11.3 | 0.00 | 0.03 | 0.03 | 81 | 1020.3 |
| 20260906092716 | 17 | 355 | 1.6 | 11.3 | 0.00 | 0.03 | 0.03 | 81 | 1020.4 |
| 20260906091642 | 17 | 198 | 1.6 | 8.0 | 0.00 | 0.03 | 0.03 | 83 | 1020.4 |
| 20260906090658 | 17 | 211 | 1.6 | 8.0 | 0.00 | 0.03 | 0.03 | 85 | 1020.4 |
| 20260906085710 | 16 | 355 | 0.0 | 8.0 | 0.00 | 0.03 | 0.03 | 86 | 1020.5 |
| 20260906084647 | 16 | 48 | 1.6 | 9.7 | 0.00 | 0.03 | 0.03 | 86 | 1020.6 |
| 20260906083636 | 16 | 229 | 0.0 | 12.9 | 0.00 | 0.03 | 0.03 | 88 | 1020.6 |
| 20260906081542 | 15 | 229 | 1.6 | 11.3 | 0.00 | 0.03 | 0.03 | 88 | 1020.7 |
| 20260906075434 | 15 | 211 | 0.0 | 9.7 | 0.00 | 0.03 | 0.03 | 90 | 1020.8 |
| 20260906074420 | 14 | 48 | 0.0 | 3.2 | 0.00 | 0.03 | 0.03 | 91 | 1020.8 |
| 20260906073400 | 13 | 195 | 0.0 | 3.2 | 0.00 | 0.03 | 0.03 | 92 | 1020.8 |
| 20260906072330 | 13 | 79 | 0.0 | 4.8 | 0.00 | 0.03 | 0.03 | 93 | 1020.8 |
| 20260906071346 | 13 | 71 | 0.0 | 4.8 | 0.00 | 0.03 | 0.03 | 93 | 1020.9 |
| 20260906070328 | 13 | 261 | 0.0 | 4.8 | 0.00 | 0.03 | 0.03 | 93 | 1020.8 |
| 20260906065340 | 13 | 123 | 0.0 | 0.0 | 0.00 | 0.03 | 0.03 | 93 | 1020.8 |
| 20260906064401 | 13 | 123 | 0.0 | 0.0 | 0.00 | 0.03 | 0.03 | 93 | 1020.8 |
| 20260906060017 | 13 | 123 | 0.0 | 1.6 | 0.00 | 0.03 | 0.03 | 93 | 1020.6 |
| 20260906055026 | 13 | 123 | 0.0 | 0.0 | 0.00 | 0.03 | 0.03 | 92 | 1020.9 |
| 20260906054042 | 13 | 123 | 0.0 | 0.0 | 0.00 | 0.03 | 0.03 | 92 | 1021.0 |
| 20260906053017 | 13 | 123 | 0.0 | 0.0 | 0.00 | 0.03 | 0.03 | 92 | 1021.1 |
| 20260906052035 | 13 | 123 | 0.0 | 0.0 | 0.00 | 0.03 | 0.03 | 91 | 1021.4 |
| 20260906051031 | 13 | 123 | 0.0 | 0.0 | 0.00 | 0.03 | 0.03 | 91 | 1021.3 |
| 20260906044857 | 13 | 123 | 0.0 | 3.2 | 0.08 | 0.03 | 0.03 | 91 | 1021.6 |
| 20260906042728 | 13 | 83 | 0.0 | 0.0 | 0.00 | 0.00 | 0.00 | 90 | 1021.8 |
| 20260906041659 | 13 | 112 | 0.0 | 0.0 | 0.00 | 0.00 | 0.00 | 90 | 1021.9 |
| 20260906040630 | 13 | 154 | 0.0 | 0.0 | 0.00 | 0.00 | 0.00 | 90 | 1021.9 |
| 20260906035614 | 13 | 25 | 0.0 | 0.0 | 0.00 | 0.00 | 0.00 | 90 | 1022.1 |
| 20260906033416 | 12 | 234 | 0.0 | 0.0 | 0.00 | 0.00 | 0.00 | 90 | 1022.3 |
| 20260906032431 | 12 | 234 | 0.0 | 0.0 | 0.00 | 0.00 | 0.00 | 90 | 1022.4 |
| 20260906031419 | 12 | 234 | 0.0 | 0.0 | 0.00 | 0.00 | 0.00 | 90 | 1022.6 |
| 20260906030423 | 12 | 234 | 0.0 | 0.0 | 0.00 | 0.00 | 0.00 | 90 | 1022.7 |
| 20260906025411 | 12 | 234 | 0.0 | 0.0 | 0.00 | 0.00 | 0.00 | 91 | 1022.7 |
| 20260906024341 | 12 | 234 | 0.0 | 0.0 | 0.00 | 0.00 | 0.00 | 90 | 1022.7 |
| 20260906023348 | 12 | 239 | 0.0 | 0.0 | 0.00 | 0.00 | 0.00 | 90 | 1022.8 |
| 20260906022325 | 12 | 249 | 0.0 | 0.0 | 0.00 | 0.00 | 0.00 | 90 | 1022.9 |
| 20260906020202 | 12 | 249 | 0.0 | 0.0 | 0.00 | 0.00 | 0.00 | 90 | 1023.3 |
| 20260906015134 | 12 | 249 | 0.0 | 0.0 | 0.00 | 0.00 | 0.00 | 90 | 1023.4 |
| 20260906014122 | 12 | 249 | 0.0 | 0.0 | 0.00 | 0.00 | 0.00 | 90 | 1023.5 |
| 20260906013145 | 12 | 249 | 0.0 | 0.0 | 0.00 | 0.00 | 0.00 | 90 | 1023.5 |
| 20260906012130 | 12 | 249 | 0.0 | 0.0 | 0.00 | 0.00 | 0.00 | 90 | 1023.7 |
| 20260906010023 | 12 | 249 | 0.0 | 0.0 | 0.00 | 0.00 | 0.00 | 90 | 1023.9 |
| 20260906005004 | 12 | 249 | 0.0 | 0.0 | 0.00 | 0.00 | 0.00 | 89 | 1024.0 |
| 20260906001725 | 12 | 249 | 0.0 | 0.0 | 0.00 | 0.00 | 0.00 | 90 | 1024.2 |
| 20260906000739 | 12 | 249 | 0.0 | 0.0 | 0.00 | 0.00 | 0.00 | 90 | 1024.5 |
| 20260905234645 | 12 | 249 | 0.0 | 0.0 | 0.00 | 0.00 | 0.00 | 89 | 1024.7 |
| 20260905233638 | 12 | 249 | 0.0 | 0.0 | 0.00 | 0.00 | 0.00 | 89 | 1024.7 |
| 20260905232643 | 12 | 249 | 0.0 | 0.0 | 0.00 | 0.00 | 0.00 | 89 | 1024.7 |
| 20260905231703 | 12 | 249 | 0.0 | 1.6 | 0.00 | 0.00 | 0.00 | 90 | 1024.6 |
| 20260905230709 | 12 | 241 | 0.0 | 0.0 | 0.00 | 0.00 | 0.00 | 89 | 1024.5 |
| 20260905225714 | 12 | 241 | 0.0 | 0.0 | 0.00 | 0.00 | 0.00 | 89 | 1024.4 |
| 20260905224722 | 12 | 241 | 0.0 | 0.0 | 0.00 | 0.00 | 0.00 | 88 | 1024.4 |
| 20260905223728 | 12 | 241 | 0.0 | 0.0 | 0.00 | 0.00 | 0.00 | 88 | 1024.3 |
| 20260905222737 | 12 | 241 | 0.0 | 0.0 | 0.00 | 0.00 | 0.00 | 87 | 1024.4 |
| 20260905220632 | 12 | 241 | 0.0 | 0.0 | 0.00 | 0.00 | 0.00 | 87 | 1024.5 |
| 20260905215622 | 12 | 241 | 0.0 | 0.0 | 0.00 | 0.00 | 0.00 | 86 | 1024.6 |
| 20260905214626 | 12 | 241 | 0.0 | 0.0 | 0.00 | 0.00 | 0.00 | 86 | 1024.7 |
| 20260905213648 | 13 | 241 | 0.0 | 0.0 | 0.00 | 0.00 | 0.00 | 85 | 1024.8 |
| 20260905211456 | 13 | 241 | 0.0 | 0.0 | 0.00 | 0.00 | 0.00 | 84 | 1024.8 |
| 20260905210426 | 13 | 241 | 0.0 | 0.0 | 0.00 | 0.00 | 0.00 | 83 | 1024.7 |
| 20260905205438 | 13 | 241 | 0.0 | 0.0 | 0.00 | 0.00 | 0.00 | 83 | 1024.6 |
| 20260905204452 | 13 | 241 | 0.0 | 0.0 | 0.00 | 0.00 | 0.00 | 82 | 1024.5 |
| 20260905202332 | 14 | 241 | 0.0 | 0.0 | 0.00 | 0.00 | 0.00 | 81 | 1024.2 |
| 20260905201322 | 14 | 241 | 0.0 | 0.0 | 0.00 | 0.00 | 0.00 | 79 | 1024.0 |
| 20260905200312 | 15 | 241 | 0.0 | 0.0 | 0.00 | 0.00 | 0.00 | 78 | 1024.1 |
| 20260905195332 | 15 | 241 | 0.0 | 0.0 | 0.00 | 0.00 | 0.00 | 76 | 1024.2 |
| 20260905194316 | 15 | 241 | 0.0 | 0.0 | 0.00 | 0.00 | 0.00 | 76 | 1024.4 |
| 20260905193305 | 15 | 241 | 0.0 | 0.0 | 0.00 | 0.00 | 0.00 | 75 | 1024.2 |
| 20260905191147 | 16 | 241 | 0.0 | 0.0 | 0.00 | 0.00 | 0.00 | 73 | 1023.9 |
| 20260905190145 | 17 | 241 | 0.0 | 1.6 | 0.00 | 0.00 | 0.00 | 71 | 1024.0 |
| 20260905185144 | 17 | 241 | 0.0 | 0.0 | 0.00 | 0.00 | 0.00 | 69 | 1023.9 |
| 20260905184142 | 17 | 261 | 0.0 | 4.8 | 0.00 | 0.00 | 0.00 | 68 | 1023.9 |
| 20260905183132 | 18 | 271 | 0.0 | 0.0 | 0.00 | 0.00 | 0.00 | 67 | 1023.8 |
| 20260905182102 | 18 | 290 | 0.0 | 0.0 | 0.00 | 0.00 | 0.00 | 64 | 1023.9 |
| 20260905181034 | 20 | 292 | 0.0 | 0.0 | 0.00 | 0.00 | 0.00 | 61 | 1024.0 |
| 20260905180057 | 20 | 292 | 0.0 | 0.0 | 0.00 | 0.00 | 0.00 | 59 | 1023.8 |
| 20260905175101 | 21 | 292 | 0.0 | 0.0 | 0.00 | 0.00 | 0.00 | 59 | 1023.8 |
| 20260905172946 | 21 | 312 | 1.6 | 6.4 | 0.00 | 0.00 | 0.00 | 57 | 1023.6 |
| 20260905171913 | 21 | 296 | 0.0 | 1.6 | 0.00 | 0.00 | 0.00 | 57 | 1023.6 |
| 20260905170855 | 21 | 295 | 1.6 | 4.8 | 0.00 | 0.00 | 0.00 | 55 | 1023.4 |
| 20260905164738 | 21 | 281 | 1.6 | 9.7 | 0.00 | 0.00 | 0.00 | 57 | 1023.5 |
| 20260905163742 | 21 | 246 | 1.6 | 9.7 | 0.00 | 0.00 | 0.00 | 56 | 1023.5 |
| 20260905162730 | 21 | 283 | 1.6 | 9.7 | 0.00 | 0.00 | 0.00 | 55 | 1023.5 |
| 20260905161746 | 21 | 234 | 0.0 | 1.6 | 0.00 | 0.00 | 0.00 | 56 | 1023.5 |
| 20260905160804 | 21 | 196 | 0.0 | 11.3 | 0.00 | 0.00 | 0.00 | 55 | 1023.7 |
| 20260905155815 | 21 | 296 | 3.2 | 11.3 | 0.00 | 0.00 | 0.00 | 58 | 1023.9 |
| 20260905154833 | 21 | 315 | 1.6 | 9.7 | 0.00 | 0.00 | 0.00 | 59 | 1023.8 |
| 20260905153822 | 20 | 248 | 1.6 | 12.9 | 0.00 | 0.00 | 0.00 | 59 | 1023.7 |
| 20260905152837 | 20 | 217 | 3.2 | 12.9 | 0.00 | 0.00 | 0.00 | 58 | 1023.8 |
| 20260905151847 | 20 | 290 | 3.2 | 8.0 | 0.00 | 0.00 | 0.00 | 59 | 1023.8 |
| 20260905150856 | 20 | 292 | 3.2 | 8.0 | 0.00 | 0.00 | 0.00 | 58 | 1024.0 |
| 20260905145850 | 20 | 183 | 1.6 | 16.1 | 0.00 | 0.00 | 0.00 | 60 | 1024.0 |
| 20260905144820 | 20 | 254 | 4.8 | 16.1 | 0.00 | 0.00 | 0.00 | 59 | 1024.1 |
| 20260905143757 | 20 | 296 | 4.8 | 12.9 | 0.00 | 0.00 | 0.00 | 61 | 1024.1 |
| 20260905142743 | 20 | 247 | 3.2 | 12.9 | 0.00 | 0.00 | 0.00 | 61 | 1024.2 |
| 20260905140609 | 20 | 277 | 3.2 | 12.9 | 0.00 | 0.00 | 0.00 | 59 | 1024.2 |
| 20260905135551 | 20 | 302 | 1.6 | 9.7 | 0.00 | 0.00 | 0.00 | 60 | 1024.1 |
| 20260905134601 | 20 | 289 | 6.4 | 14.5 | 0.00 | 0.00 | 0.00 | 60 | 1024.2 |
| 20260905133541 | 20 | 302 | 6.4 | 14.5 | 0.00 | 0.00 | 0.00 | 61 | 1024.2 |